Regional Weather Roundup
Issued by NWS

Home | Current Version | Previous Version | Text Only | Print | Product List | Glossary Off
Versions: 1 2 3 4 5 6 7 8 9 10 11 12 13 14 15 16 17 18 19 20 21 22 23 24 25 26 27 28 29 30 31 32 33 34 35 36 37 38 39 40 41 42 43 44 45 46 47 48 49 50

000
ASUS43 KLSX 270657
RWRMO

WEATHER SUMMARY FOR MISSOURI
NATIONAL WEATHER SERVICE SPRINGFIELD MO
200 AM CDT TUE JUN 27 2017

NOTE: "FAIR" INDICATES FEW OR NO CLOUDS BELOW 12,000 FEET WITH NO
       SIGNIFICANT WEATHER AND/OR OBSTRUCTIONS TO VISIBILITY.
       CURRENT SKY AND/OR WEATHER CONDITIONS ARE NOT AVAILABLE FOR
       CHILLICOTHE AND FARMINGTON.

MOZ001>031-035>038-043-044-053-054-270800-
...NORTHERN AND WESTERN MISSOURI...

CITY           SKY/WX    TMP DP  RH WIND       PRES   REMARKS
KANSAS CTY INT CLEAR     58  57  97 SE6       30.15S
LEE`S SUMMIT   CLEAR     59  59 100 E5        30.15F
ST JOSEPH      FOG       55  55 100 N3        30.15S VSB 3/4
CHILLICOTHE      N/A     56  56 100 CALM      30.16S

$$
MOZ066>068-077>081-088>096-101>105-270800-
...SOUTHWEST MISSOURI...

CITY           SKY/WX    TMP DP  RH WIND       PRES   REMARKS
SPRINGFIELD    CLOUDY    61  60  97 SE6       30.12F
JOPLIN         LGT RAIN  64  63  96 NE6       30.12R

$$
MOZ032>034-039>042-045>050-055>058-069>072-270800-
...CENTRAL MISSOURI...

CITY           SKY/WX    TMP DP  RH WIND       PRES   REMARKS
COLUMBIA       NOT AVBL
JEFFERSON CITY FOG       60  59  96 CALM      30.15S VSB<1/4
ROLLA          CLEAR     54  54 100 CALM      30.15R
SEDALIA        CLEAR     59  59 100 CALM      30.16F FOG
WARRENSBURG    FOG       57  55  94 CALM      30.15F VSB 1/2

$$
MOZ051-052-059>065-270800-
...EAST CENTRAL MISSOURI...

CITY           SKY/WX    TMP DP  RH WIND       PRES   REMARKS
ST LOUIS INTL  CLEAR     62  56  80 W3        30.14S

$$
MOZ072>076-082>087-097>100-106>115-270800-
...SOUTH CENTRAL AND SOUTHEAST MISSOURI...

CITY           SKY/WX    TMP DP  RH WIND       PRES   REMARKS
CAPE GIRARDEAU MOCLDY    65  58  78 NW5       30.11S
POPLAR BLUFF   LGT RAIN  64  63  96 CALM      30.11S
WEST PLAINS    CLOUDY    61  59  93 S3        30.14F

$$



USA.gov is the U.S. government's official web portal to all federal, state and local government web resources and services.